| time (UTC) | temp C | wind direction | speed KPH | gust KPH | rain 1hr cm | rain 24hr cm | rain mn cm | humidity % | barometer mb |
| 20260505153056 | 12 | 226 | 4.8 | 9.7 | 0.00 | 0.00 | 0.00 | 87 | 1015.5 |
| 20260505152550 | 12 | 249 | 4.8 | 9.7 | 0.00 | 0.00 | 0.00 | 86 | 1015.5 |
| 20260505152049 | 12 | 244 | 6.4 | 14.5 | 0.00 | 0.00 | 0.00 | 87 | 1015.4 |
| 20260505151556 | 12 | 254 | 4.8 | 14.5 | 0.00 | 0.00 | 0.00 | 86 | 1015.5 |
| 20260505151054 | 12 | 226 | 6.4 | 14.5 | 0.00 | 0.00 | 0.00 | 86 | 1015.4 |
| 20260505150549 | 12 | 241 | 4.8 | 16.1 | 0.00 | 0.00 | 0.00 | 86 | 1015.3 |
| 20260505140549 | 12 | 224 | 4.8 | 14.5 | 0.00 | 0.00 | 0.00 | 87 | 1014.8 |
| 20260505124557 | 12 | 219 | 4.8 | 12.9 | 0.00 | 0.00 | 0.00 | 87 | 1014.1 |
| 20260505124049 | 12 | 251 | 6.4 | 16.1 | 0.00 | 0.00 | 0.00 | 87 | 1014.1 |
| 20260505123549 | 12 | 222 | 6.4 | 16.1 | 0.00 | 0.00 | 0.00 | 87 | 1014.1 |
| 20260505123058 | 12 | 233 | 6.4 | 16.1 | 0.00 | 0.00 | 0.00 | 87 | 1014.0 |
| 20260505122548 | 12 | 243 | 6.4 | 17.7 | 0.00 | 0.00 | 0.00 | 87 | 1014.0 |
| 20260505122050 | 12 | 192 | 9.7 | 19.3 | 0.00 | 0.00 | 0.00 | 87 | 1014.0 |
| 20260505121556 | 12 | 193 | 9.7 | 19.3 | 0.00 | 0.00 | 0.00 | 87 | 1013.9 |
| 20260505121050 | 12 | 218 | 8.0 | 16.1 | 0.00 | 0.00 | 0.00 | 87 | 1013.9 |
| 20260505120550 | 12 | 239 | 8.0 | 14.5 | 0.00 | 0.00 | 0.00 | 87 | 1013.9 |
| 20260505120119 | 12 | 216 | 8.0 | 14.5 | 0.00 | 0.00 | 0.00 | 87 | 1013.8 |
| 20260505115549 | 12 | 244 | 8.0 | 16.1 | 0.00 | 0.00 | 0.00 | 87 | 1013.9 |
| 20260505115049 | 12 | 220 | 6.4 | 17.7 | 0.00 | 0.00 | 0.00 | 87 | 1013.8 |
| 20260505114555 | 12 | 249 | 6.4 | 17.7 | 0.00 | 0.00 | 0.00 | 87 | 1013.7 |
| 20260505114049 | 12 | 185 | 8.0 | 17.7 | 0.00 | 0.00 | 0.00 | 87 | 1013.8 |
| 20260505113553 | 12 | 225 | 8.0 | 16.1 | 0.00 | 0.00 | 0.00 | 87 | 1013.8 |
| 20260505113053 | 12 | 235 | 4.8 | 17.7 | 0.00 | 0.00 | 0.00 | 87 | 1013.7 |
| 20260505112548 | 12 | 230 | 9.7 | 19.3 | 0.00 | 0.00 | 0.00 | 87 | 1013.7 |
| 20260505112046 | 12 | 214 | 11.3 | 19.3 | 0.00 | 0.00 | 0.00 | 87 | 1013.8 |
| 20260505111553 | 12 | 239 | 9.7 | 17.7 | 0.00 | 0.00 | 0.00 | 87 | 1013.7 |
| 20260505111048 | 12 | 227 | 9.7 | 17.7 | 0.00 | 0.00 | 0.00 | 88 | 1013.6 |
| 20260505110550 | 12 | 244 | 9.7 | 20.9 | 0.00 | 0.00 | 0.00 | 88 | 1013.6 |
| 20260505110113 | 12 | 237 | 11.3 | 20.9 | 0.00 | 0.00 | 0.00 | 88 | 1013.5 |
| 20260505102050 | 11 | 210 | 11.3 | 22.5 | 0.00 | 0.00 | 0.00 | 88 | 1013.3 |
| 20260505101551 | 11 | 206 | 12.9 | 22.5 | 0.00 | 0.00 | 0.00 | 88 | 1013.3 |
| 20260505101048 | 11 | 219 | 9.7 | 22.5 | 0.00 | 0.00 | 0.00 | 88 | 1013.2 |
| 20260505100548 | 11 | 229 | 11.3 | 22.5 | 0.00 | 0.00 | 0.00 | 88 | 1013.1 |
| 20260505100053 | 11 | 243 | 11.3 | 22.5 | 0.00 | 0.00 | 0.00 | 89 | 1013.1 |
| 20260505095548 | 11 | 238 | 14.5 | 22.5 | 0.00 | 0.00 | 0.00 | 89 | 1013.0 |
| 20260505095046 | 11 | 234 | 12.9 | 22.5 | 0.00 | 0.00 | 0.00 | 89 | 1013.0 |
| 20260505094550 | 11 | 212 | 16.1 | 22.5 | 0.00 | 0.00 | 0.00 | 88 | 1013.1 |
| 20260505094048 | 11 | 236 | 12.9 | 20.9 | 0.00 | 0.00 | 0.00 | 89 | 1013.0 |
| 20260505093549 | 11 | 224 | 12.9 | 20.9 | 0.00 | 0.00 | 0.00 | 89 | 1012.8 |
| 20260505093052 | 11 | 249 | 11.3 | 22.5 | 0.00 | 0.00 | 0.00 | 89 | 1012.8 |
| 20260505092548 | 11 | 226 | 12.9 | 27.4 | 0.00 | 0.00 | 0.00 | 89 | 1012.8 |
| 20260505092047 | 11 | 212 | 14.5 | 27.4 | 0.00 | 0.00 | 0.00 | 89 | 1012.8 |
| 20260505091556 | 11 | 215 | 17.7 | 25.7 | 0.00 | 0.00 | 0.00 | 89 | 1012.8 |
| 20260505091046 | 11 | 207 | 11.3 | 20.9 | 0.00 | 0.00 | 0.00 | 89 | 1012.7 |
| 20260505090548 | 11 | 222 | 11.3 | 22.5 | 0.00 | 0.00 | 0.00 | 89 | 1012.7 |
| 20260505090056 | 11 | 234 | 14.5 | 22.5 | 0.00 | 0.00 | 0.00 | 89 | 1012.7 |
| 20260505085549 | 11 | 236 | 11.3 | 22.5 | 0.00 | 0.00 | 0.00 | 89 | 1012.7 |
| 20260505085049 | 11 | 207 | 14.5 | 24.1 | 0.00 | 0.00 | 0.00 | 89 | 1012.6 |
| 20260505084600 | 11 | 255 | 12.9 | 24.1 | 0.00 | 0.00 | 0.00 | 89 | 1012.6 |
| 20260505084049 | 11 | 214 | 16.1 | 24.1 | 0.00 | 0.00 | 0.00 | 89 | 1012.6 |
| 20260505083548 | 11 | 247 | 9.7 | 20.9 | 0.00 | 0.00 | 0.00 | 89 | 1012.6 |
| 20260505083105 | 11 | 249 | 14.5 | 20.9 | 0.00 | 0.00 | 0.00 | 89 | 1012.7 |
| 20260505082552 | 11 | 221 | 11.3 | 20.9 | 0.00 | 0.00 | 0.00 | 89 | 1012.6 |
| 20260505082048 | 11 | 209 | 12.9 | 20.9 | 0.00 | 0.00 | 0.00 | 89 | 1012.7 |
| 20260505081556 | 11 | 180 | 8.0 | 17.7 | 0.00 | 0.00 | 0.00 | 89 | 1012.7 |
| 20260505081048 | 11 | 244 | 9.7 | 19.3 | 0.00 | 0.00 | 0.00 | 89 | 1012.6 |
| 20260505080548 | 11 | 206 | 11.3 | 19.3 | 0.00 | 0.00 | 0.00 | 89 | 1012.6 |
| 20260505080055 | 11 | 215 | 9.7 | 14.5 | 0.00 | 0.00 | 0.00 | 89 | 1012.7 |
| 20260505075551 | 11 | 199 | 6.4 | 17.7 | 0.00 | 0.00 | 0.00 | 89 | 1012.6 |
| 20260505075047 | 11 | 234 | 8.0 | 17.7 | 0.00 | 0.00 | 0.00 | 88 | 1012.5 |
| 20260505074556 | 11 | 220 | 11.3 | 17.7 | 0.00 | 0.00 | 0.00 | 88 | 1012.5 |
| 20260505074048 | 11 | 247 | 11.3 | 16.1 | 0.00 | 0.00 | 0.00 | 88 | 1012.5 |
| 20260505073548 | 11 | 212 | 8.0 | 14.5 | 0.00 | 0.00 | 0.00 | 88 | 1012.4 |
| 20260505073058 | 11 | 229 | 9.7 | 14.5 | 0.00 | 0.00 | 0.00 | 88 | 1012.4 |
| 20260505072551 | 11 | 216 | 8.0 | 17.7 | 0.00 | 0.00 | 0.00 | 88 | 1012.4 |
| 20260505072048 | 12 | 204 | 11.3 | 17.7 | 0.00 | 0.00 | 0.00 | 88 | 1012.3 |
| 20260505071548 | 12 | 190 | 9.7 | 17.7 | 0.00 | 0.00 | 0.00 | 88 | 1012.3 |
| 20260505071048 | 12 | 212 | 9.7 | 17.7 | 0.00 | 0.00 | 0.00 | 87 | 1012.1 |
| 20260505070548 | 12 | 231 | 8.0 | 19.3 | 0.00 | 0.00 | 0.00 | 87 | 1012.1 |
| 20260505070100 | 12 | 241 | 8.0 | 19.3 | 0.00 | 0.00 | 0.00 | 87 | 1012.0 |
| 20260505065548 | 12 | 220 | 9.7 | 20.9 | 0.00 | 0.00 | 0.00 | 87 | 1012.0 |
| 20260505065049 | 12 | 222 | 11.3 | 20.9 | 0.00 | 0.00 | 0.00 | 87 | 1011.9 |
| 20260505064631 | 12 | 212 | 12.9 | 19.3 | 0.00 | 0.00 | 0.00 | 87 | 1012.0 |
| 20260505064047 | 12 | 220 | 9.7 | 22.5 | 0.00 | 0.00 | 0.00 | 87 | 1011.9 |
| 20260505063548 | 12 | 237 | 12.9 | 22.5 | 0.00 | 0.00 | 0.00 | 87 | 1011.9 |
| 20260505063058 | 12 | 213 | 12.9 | 22.5 | 0.00 | 0.00 | 0.00 | 87 | 1011.8 |
| 20260505062549 | 12 | 206 | 14.5 | 19.3 | 0.00 | 0.00 | 0.00 | 86 | 1011.8 |
| 20260505062048 | 12 | 222 | 11.3 | 22.5 | 0.00 | 0.00 | 0.00 | 86 | 1011.7 |
| 20260505061555 | 12 | 207 | 11.3 | 22.5 | 0.00 | 0.00 | 0.00 | 86 | 1011.6 |
| 20260505061048 | 12 | 197 | 12.9 | 22.5 | 0.00 | 0.00 | 0.00 | 86 | 1011.5 |
| 20260505060549 | 12 | 201 | 11.3 | 22.5 | 0.00 | 0.00 | 0.00 | 86 | 1011.5 |
| 20260505060056 | 12 | 210 | 11.3 | 22.5 | 0.00 | 0.00 | 0.00 | 86 | 1011.4 |
| 20260505055549 | 12 | 220 | 11.3 | 19.3 | 0.00 | 0.00 | 0.00 | 86 | 1011.5 |
| 20260505055049 | 12 | 208 | 9.7 | 19.3 | 0.00 | 0.00 | 0.00 | 86 | 1011.4 |
| 20260505054554 | 12 | 230 | 11.3 | 19.3 | 0.00 | 0.00 | 0.00 | 85 | 1011.4 |
| 20260505054049 | 12 | 233 | 12.9 | 19.3 | 0.00 | 0.00 | 0.00 | 85 | 1011.4 |
| 20260505053547 | 12 | 191 | 11.3 | 19.3 | 0.00 | 0.00 | 0.00 | 85 | 1011.3 |
| 20260505053052 | 12 | 239 | 12.9 | 19.3 | 0.00 | 0.00 | 0.00 | 85 | 1011.3 |
| 20260505052547 | 12 | 231 | 12.9 | 19.3 | 0.00 | 0.00 | 0.00 | 84 | 1011.2 |
| 20260505052047 | 13 | 231 | 11.3 | 17.7 | 0.00 | 0.00 | 0.00 | 84 | 1011.2 |
| 20260505051554 | 13 | 195 | 9.7 | 19.3 | 0.00 | 0.00 | 0.00 | 83 | 1011.3 |
| 20260505051048 | 13 | 208 | 9.7 | 19.3 | 0.00 | 0.00 | 0.00 | 83 | 1011.2 |
| 20260505050548 | 13 | 212 | 9.7 | 20.9 | 0.00 | 0.00 | 0.00 | 82 | 1011.2 |
| 20260505050106 | 13 | 212 | 8.0 | 20.9 | 0.00 | 0.00 | 0.00 | 82 | 1011.1 |
| 20260505041604 | 15 | 235 | 9.7 | 17.7 | 0.00 | 0.00 | 0.00 | 77 | 1010.5 |
| 20260505041047 | 15 | 213 | 9.7 | 19.3 | 0.00 | 0.00 | 0.00 | 76 | 1010.4 |
| 20260505040549 | 16 | 225 | 11.3 | 19.3 | 0.00 | 0.00 | 0.00 | 75 | 1010.4 |
| 20260505040100 | 16 | 222 | 9.7 | 17.7 | 0.00 | 0.00 | 0.00 | 75 | 1010.2 |
| 20260505035546 | 16 | 255 | 9.7 | 19.3 | 0.00 | 0.00 | 0.00 | 75 | 1010.2 |
| 20260505035048 | 16 | 251 | 9.7 | 19.3 | 0.00 | 0.00 | 0.00 | 74 | 1010.1 |
| 20260505034608 | 16 | 235 | 11.3 | 20.9 | 0.00 | 0.00 | 0.00 | 73 | 1010.1 |
| 20260505034048 | 16 | 265 | 11.3 | 20.9 | 0.00 | 0.00 | 0.00 | 73 | 1010.0 |
| 20260505033548 | 17 | 246 | 12.9 | 24.1 | 0.00 | 0.00 | 0.00 | 72 | 1009.9 |
| 20260505033054 | 17 | 247 | 14.5 | 24.1 | 0.00 | 0.00 | 0.00 | 71 | 1009.9 |
| 20260505032546 | 17 | 240 | 14.5 | 22.5 | 0.00 | 0.00 | 0.00 | 71 | 1009.9 |
| 20260505032047 | 17 | 243 | 12.9 | 22.5 | 0.00 | 0.00 | 0.00 | 70 | 1009.8 |
| 20260505031554 | 17 | 251 | 12.9 | 19.3 | 0.00 | 0.00 | 0.00 | 69 | 1009.7 |
| 20260505031048 | 18 | 264 | 11.3 | 22.5 | 0.00 | 0.00 | 0.00 | 69 | 1009.8 |
| 20260505030552 | 18 | 254 | 12.9 | 22.5 | 0.00 | 0.00 | 0.00 | 68 | 1009.7 |
| 20260505030104 | 18 | 249 | 16.1 | 22.5 | 0.00 | 0.00 | 0.00 | 66 | 1009.6 |
| 20260505025546 | 19 | 256 | 11.3 | 22.5 | 0.00 | 0.00 | 0.00 | 66 | 1009.6 |
| 20260505025046 | 19 | 231 | 9.7 | 22.5 | 0.00 | 0.00 | 0.00 | 65 | 1009.5 |
| 20260505024606 | 20 | 250 | 14.5 | 22.5 | 0.00 | 0.00 | 0.00 | 64 | 1009.5 |
| 20260505024046 | 20 | 246 | 11.3 | 19.3 | 0.00 | 0.00 | 0.00 | 64 | 1009.4 |
| 20260505023545 | 20 | 223 | 11.3 | 19.3 | 0.00 | 0.00 | 0.00 | 63 | 1009.4 |
| 20260505023056 | 20 | 230 | 9.7 | 22.5 | 0.00 | 0.00 | 0.00 | 62 | 1009.4 |
| 20260505022548 | 21 | 261 | 14.5 | 22.5 | 0.00 | 0.00 | 0.00 | 61 | 1009.4 |
| 20260505022048 | 21 | 233 | 9.7 | 22.5 | 0.00 | 0.00 | 0.00 | 59 | 1009.3 |
| 20260505021555 | 21 | 232 | 9.7 | 22.5 | 0.00 | 0.00 | 0.00 | 59 | 1009.4 |
| 20260505021048 | 21 | 238 | 12.9 | 22.5 | 0.00 | 0.00 | 0.00 | 58 | 1009.4 |
| 20260505020548 | 21 | 244 | 11.3 | 20.9 | 0.00 | 0.00 | 0.00 | 58 | 1009.4 |
| 20260505020108 | 22 | 220 | 11.3 | 19.3 | 0.00 | 0.00 | 0.00 | 57 | 1009.3 |
| 20260505015548 | 22 | 262 | 9.7 | 19.3 | 0.00 | 0.00 | 0.00 | 56 | 1009.3 |
| 20260505015050 | 22 | 278 | 8.0 | 16.1 | 0.00 | 0.00 | 0.00 | 56 | 1009.3 |
| 20260505014553 | 22 | 266 | 9.7 | 17.7 | 0.00 | 0.00 | 0.00 | 57 | 1009.3 |
| 20260505014048 | 22 | 245 | 9.7 | 20.9 | 0.00 | 0.00 | 0.00 | 57 | 1009.3 |
| 20260505013548 | 22 | 214 | 12.9 | 20.9 | 0.00 | 0.00 | 0.00 | 56 | 1009.3 |
| 20260505013058 | 22 | 260 | 12.9 | 20.9 | 0.00 | 0.00 | 0.00 | 57 | 1009.2 |
| 20260505012550 | 23 | 267 | 9.7 | 17.7 | 0.00 | 0.00 | 0.00 | 56 | 1009.2 |
| 20260505012048 | 23 | 252 | 9.7 | 16.1 | 0.00 | 0.00 | 0.00 | 57 | 1009.1 |
| 20260505011557 | 23 | 241 | 11.3 | 16.1 | 0.00 | 0.00 | 0.00 | 56 | 1009.2 |
| 20260505011051 | 23 | 257 | 8.0 | 16.1 | 0.00 | 0.00 | 0.00 | 56 | 1009.1 |
| 20260505010548 | 23 | 231 | 11.3 | 16.1 | 0.00 | 0.00 | 0.00 | 55 | 1009.2 |
| 20260505010108 | 23 | 256 | 11.3 | 16.1 | 0.00 | 0.00 | 0.00 | 55 | 1009.3 |
| 20260505005548 | 24 | 245 | 8.0 | 14.5 | 0.00 | 0.00 | 0.00 | 55 | 1009.3 |
| 20260505005048 | 23 | 260 | 4.8 | 17.7 | 0.00 | 0.00 | 0.00 | 54 | 1009.3 |
| 20260505004602 | 23 | 289 | 4.8 | 17.7 | 0.00 | 0.00 | 0.00 | 55 | 1009.3 |
| 20260505004047 | 24 | 264 | 11.3 | 17.7 | 0.00 | 0.00 | 0.00 | 53 | 1009.3 |
| 20260505003547 | 24 | 311 | 6.4 | 17.7 | 0.00 | 0.00 | 0.00 | 53 | 1009.3 |
| 20260505003055 | 24 | 235 | 8.0 | 17.7 | 0.00 | 0.00 | 0.00 | 53 | 1009.3 |
| 20260505002550 | 25 | 241 | 8.0 | 14.5 | 0.00 | 0.00 | 0.00 | 53 | 1009.3 |
| 20260505002047 | 25 | 258 | 6.4 | 16.1 | 0.00 | 0.00 | 0.00 | 54 | 1009.3 |
| 20260505001558 | 24 | 258 | 8.0 | 16.1 | 0.00 | 0.00 | 0.00 | 54 | 1009.3 |
| 20260505001047 | 24 | 200 | 9.7 | 16.1 | 0.00 | 0.00 | 0.00 | 53 | 1009.4 |
| 20260505000548 | 24 | 239 | 6.4 | 16.1 | 0.00 | 0.00 | 0.00 | 52 | 1009.4 |
| 20260505000112 | 24 | 241 | 12.9 | 16.1 | 0.00 | 0.00 | 0.00 | 53 | 1009.3 |
| 20260504235548 | 25 | 249 | 8.0 | 17.7 | 0.00 | 0.00 | 0.00 | 53 | 1009.3 |
| 20260504235048 | 25 | 280 | 8.0 | 17.7 | 0.00 | 0.00 | 0.00 | 52 | 1009.2 |
| 20260504234550 | 25 | 252 | 6.4 | 14.5 | 0.00 | 0.00 | 0.00 | 53 | 1009.3 |
| 20260504234048 | 24 | 243 | 9.7 | 17.7 | 0.00 | 0.00 | 0.00 | 51 | 1009.3 |
| 20260504233548 | 24 | 239 | 9.7 | 17.7 | 0.00 | 0.00 | 0.00 | 53 | 1009.2 |
| 20260504233050 | 24 | 248 | 11.3 | 17.7 | 0.00 | 0.00 | 0.00 | 50 | 1009.3 |
| 20260504232548 | 25 | 235 | 9.7 | 16.1 | 0.00 | 0.00 | 0.00 | 53 | 1009.2 |
| 20260504232047 | 25 | 242 | 9.7 | 17.7 | 0.00 | 0.00 | 0.00 | 50 | 1009.2 |
| 20260504231620 | 25 | 220 | 8.0 | 17.7 | 0.00 | 0.00 | 0.00 | 51 | 1009.3 |
| 20260504231048 | 25 | 278 | 9.7 | 17.7 | 0.00 | 0.00 | 0.00 | 50 | 1009.3 |
| 20260504230547 | 25 | 240 | 6.4 | 16.1 | 0.00 | 0.00 | 0.00 | 49 | 1009.4 |
| 20260504230101 | 25 | 250 | 9.7 | 16.1 | 0.00 | 0.00 | 0.00 | 48 | 1009.5 |
| 20260504225549 | 24 | 244 | 11.3 | 16.1 | 0.00 | 0.00 | 0.00 | 48 | 1009.6 |
| 20260504225051 | 24 | 247 | 8.0 | 16.1 | 0.00 | 0.00 | 0.00 | 46 | 1009.7 |
| 20260504224549 | 24 | 245 | 11.3 | 14.5 | 0.00 | 0.00 | 0.00 | 47 | 1009.8 |
| 20260504224047 | 24 | 256 | 8.0 | 14.5 | 0.00 | 0.00 | 0.00 | 48 | 1009.9 |
| 20260504223548 | 25 | 266 | 4.8 | 14.5 | 0.00 | 0.00 | 0.00 | 45 | 1009.9 |
| 20260504223054 | 25 | 289 | 8.0 | 16.1 | 0.00 | 0.00 | 0.00 | 44 | 1009.9 |
| 20260504222549 | 25 | 308 | 6.4 | 16.1 | 0.00 | 0.00 | 0.00 | 45 | 1009.9 |
| 20260504222048 | 25 | 288 | 6.4 | 14.5 | 0.00 | 0.00 | 0.00 | 45 | 1010.0 |
| 20260504221631 | 25 | 266 | 6.4 | 12.9 | 0.00 | 0.00 | 0.00 | 43 | 1010.0 |
| 20260504221048 | 25 | 234 | 6.4 | 14.5 | 0.00 | 0.00 | 0.00 | 43 | 1010.0 |
| 20260504220548 | 25 | 197 | 4.8 | 17.7 | 0.00 | 0.00 | 0.00 | 45 | 1010.0 |
| 20260504220052 | 24 | 260 | 9.7 | 17.7 | 0.00 | 0.00 | 0.00 | 43 | 1010.0 |
| 20260504215550 | 24 | 252 | 9.7 | 16.1 | 0.00 | 0.00 | 0.00 | 44 | 1010.1 |
| 20260504215047 | 24 | 262 | 6.4 | 16.1 | 0.00 | 0.00 | 0.00 | 47 | 1010.2 |
| 20260504214550 | 23 | 275 | 6.4 | 16.1 | 0.00 | 0.00 | 0.00 | 50 | 1010.1 |
| 20260504214046 | 23 | 273 | 11.3 | 17.7 | 0.00 | 0.00 | 0.00 | 48 | 1010.1 |
| 20260504213548 | 23 | 276 | 8.0 | 17.7 | 0.00 | 0.00 | 0.00 | 48 | 1010.2 |
| 20260504213054 | 23 | 270 | 8.0 | 17.7 | 0.00 | 0.00 | 0.00 | 50 | 1010.2 |
| 20260504212548 | 23 | 281 | 9.7 | 17.7 | 0.00 | 0.00 | 0.00 | 52 | 1010.2 |
| 20260504212049 | 23 | 270 | 8.0 | 16.1 | 0.00 | 0.00 | 0.00 | 56 | 1010.2 |
| 20260504211549 | 23 | 213 | 8.0 | 19.3 | 0.00 | 0.00 | 0.00 | 55 | 1010.2 |
| 20260504211048 | 22 | 262 | 11.3 | 19.3 | 0.00 | 0.00 | 0.00 | 54 | 1010.3 |
| 20260504210548 | 23 | 270 | 8.0 | 14.5 | 0.00 | 0.00 | 0.00 | 55 | 1010.3 |
| 20260504210054 | 22 | 224 | 9.7 | 14.5 | 0.00 | 0.00 | 0.00 | 56 | 1010.3 |
| 20260504205549 | 22 | 240 | 9.7 | 14.5 | 0.00 | 0.00 | 0.00 | 58 | 1010.3 |
| 20260504205049 | 23 | 236 | 6.4 | 14.5 | 0.00 | 0.00 | 0.00 | 57 | 1010.3 |
| 20260504204549 | 23 | 153 | 6.4 | 14.5 | 0.00 | 0.00 | 0.00 | 58 | 1010.4 |
| 20260504204049 | 23 | 200 | 8.0 | 14.5 | 0.00 | 0.00 | 0.00 | 58 | 1010.5 |
| 20260504203550 | 23 | 189 | 6.4 | 14.5 | 0.00 | 0.00 | 0.00 | 62 | 1010.5 |
| 20260504203050 | 22 | 216 | 8.0 | 14.5 | 0.00 | 0.00 | 0.00 | 60 | 1010.4 |
| 20260504202546 | 22 | 189 | 8.0 | 14.5 | 0.00 | 0.00 | 0.00 | 59 | 1010.4 |
| 20260504202049 | 22 | 191 | 6.4 | 14.5 | 0.00 | 0.00 | 0.00 | 60 | 1010.3 |
| 20260504201550 | 22 | 185 | 8.0 | 14.5 | 0.00 | 0.00 | 0.00 | 57 | 1010.4 |
| 20260504201049 | 22 | 215 | 8.0 | 14.5 | 0.00 | 0.00 | 0.00 | 60 | 1010.4 |
| 20260504200548 | 22 | 162 | 6.4 | 14.5 | 0.00 | 0.00 | 0.00 | 62 | 1010.4 |
| 20260504200052 | 22 | 175 | 6.4 | 14.5 | 0.00 | 0.00 | 0.00 | 61 | 1010.6 |
| 20260504195548 | 22 | 199 | 6.4 | 14.5 | 0.00 | 0.00 | 0.00 | 62 | 1010.7 |
| 20260504195048 | 21 | 256 | 8.0 | 16.1 | 0.00 | 0.00 | 0.00 | 60 | 1010.7 |
| 20260504194602 | 21 | 218 | 8.0 | 16.1 | 0.00 | 0.00 | 0.00 | 60 | 1010.8 |
| 20260504194048 | 21 | 208 | 11.3 | 16.1 | 0.00 | 0.00 | 0.00 | 62 | 1010.7 |
| 20260504193548 | 21 | 215 | 9.7 | 19.3 | 0.00 | 0.00 | 0.00 | 61 | 1010.7 |
| 20260504193050 | 21 | 193 | 8.0 | 19.3 | 0.00 | 0.00 | 0.00 | 59 | 1010.7 |
| 20260504192547 | 21 | 206 | 11.3 | 20.9 | 0.00 | 0.00 | 0.00 | 60 | 1010.8 |
| 20260504192048 | 21 | 204 | 12.9 | 20.9 | 0.00 | 0.00 | 0.00 | 61 | 1010.8 |
| 20260504191610 | 21 | 206 | 14.5 | 20.9 | 0.00 | 0.00 | 0.00 | 62 | 1010.9 |
| 20260504191047 | 21 | 207 | 16.1 | 20.9 | 0.00 | 0.00 | 0.00 | 60 | 1010.8 |
| 20260504190547 | 20 | 203 | 12.9 | 20.9 | 0.00 | 0.00 | 0.00 | 61 | 1010.9 |
| 20260504190058 | 20 | 218 | 11.3 | 17.7 | 0.00 | 0.00 | 0.00 | 62 | 1010.8 |
| 20260504185549 | 20 | 242 | 11.3 | 17.7 | 0.00 | 0.00 | 0.00 | 60 | 1010.9 |
| 20260504185048 | 21 | 220 | 6.4 | 17.7 | 0.00 | 0.00 | 0.00 | 65 | 1010.9 |
| 20260504184601 | 20 | 164 | 11.3 | 17.7 | 0.00 | 0.00 | 0.00 | 64 | 1011.0 |
| 20260504184048 | 20 | 209 | 11.3 | 17.7 | 0.00 | 0.00 | 0.00 | 64 | 1011.1 |
| 20260504183548 | 21 | 189 | 12.9 | 17.7 | 0.00 | 0.00 | 0.00 | 60 | 1011.0 |
| 20260504183056 | 21 | 162 | 9.7 | 19.3 | 0.00 | 0.00 | 0.00 | 63 | 1011.0 |
| 20260504182553 | 20 | 208 | 11.3 | 19.3 | 0.00 | 0.00 | 0.00 | 64 | 1011.0 |
| 20260504182048 | 20 | 206 | 11.3 | 19.3 | 0.00 | 0.00 | 0.00 | 64 | 1011.0 |
| 20260504181551 | 20 | 156 | 9.7 | 17.7 | 0.00 | 0.00 | 0.00 | 65 | 1011.2 |
| 20260504181048 | 20 | 166 | 8.0 | 14.5 | 0.00 | 0.00 | 0.00 | 63 | 1011.2 |
| 20260504180547 | 20 | 192 | 8.0 | 16.1 | 0.00 | 0.00 | 0.00 | 67 | 1011.3 |
| 20260504180054 | 19 | 199 | 9.7 | 16.1 | 0.00 | 0.00 | 0.00 | 67 | 1011.2 |
| 20260504175547 | 19 | 189 | 6.4 | 14.5 | 0.00 | 0.00 | 0.00 | 66 | 1011.3 |
| 20260504175045 | 19 | 239 | 6.4 | 16.1 | 0.00 | 0.00 | 0.00 | 67 | 1011.2 |
| 20260504174553 | 19 | 175 | 8.0 | 17.7 | 0.00 | 0.00 | 0.00 | 69 | 1011.1 |
| 20260504174048 | 18 | 216 | 9.7 | 19.3 | 0.00 | 0.00 | 0.00 | 69 | 1011.1 |
| 20260504173551 | 18 | 202 | 12.9 | 19.3 | 0.00 | 0.00 | 0.00 | 68 | 1011.2 |
| 20260504173055 | 18 | 175 | 11.3 | 16.1 | 0.00 | 0.00 | 0.00 | 67 | 1011.0 |
| 20260504172548 | 18 | 208 | 8.0 | 14.5 | 0.00 | 0.00 | 0.00 | 68 | 1011.0 |
| 20260504172052 | 18 | 185 | 8.0 | 14.5 | 0.00 | 0.00 | 0.00 | 65 | 1011.0 |
| 20260504171556 | 18 | 226 | 6.4 | 14.5 | 0.00 | 0.00 | 0.00 | 66 | 1010.9 |
| 20260504171048 | 18 | 190 | 8.0 | 14.5 | 0.00 | 0.00 | 0.00 | 67 | 1011.0 |
| 20260504170548 | 18 | 196 | 9.7 | 14.5 | 0.00 | 0.00 | 0.00 | 65 | 1011.0 |